Powrót do katalogu

STARLINK-5706

AktywnyŁącznośćVLEO
NORAD 55488·PAYLOAD·🇺🇸 United States

Wystrzelony Feb 2, 2023 z Cape Canaveral Space Force Station

Loading…

Następne Przeloty (najbliższe 24 godziny)

TLE

ŚwieżeSource: CelesTrak SupGP

Epoka: Sep 15, 2026, 01:35 UTC

1 55488C 23015AR  26258.06645833 -.00009072  00000+0 -32863-3 0  2581
2 55488  43.0037 350.2259 0001659 281.0387 236.2871 15.27578594    18

Śledź STARLINK-5706 w czasie rzeczywistym z AllMySat

Download on the App Store